Location: Waco, TX
(31.5480°N, 97.1670°W)
Time: 14:10:55
(UTC-06:00)

ISS - Pass Details

Date: 12 January 2018
Orbit: 402 x 407 km, 51.6° (Epoch: 23 January)

Event Time Altitude Azimuth Distance (km) Brightness Sun altitude
Rises 00:34:44 0° 244° (WSW) 2,302 - -80.1°
Reaches altitude 10° 00:36:57 10° 255° (WSW) 1,447 - -80.1°
Maximum altitude 00:39:52 31° 320° (NW) 738 - -80.1°
Drops below altitude 10° 00:42:49 10° 25° (NNE) 1,456 - -80.0°
Sets 00:45:03 0° 36° (NE) 2,319 - -79.9°
